TimeCST,TemperatureF,Dew PointF,Humidity,Sea Level PressureIn,VisibilityMPH,Wind Direction,Wind SpeedMPH,Gust SpeedMPH,PrecipitationIn,Events,Conditions,WindDirDegrees,DateUTC
12:15 AM,42.8,41.0,93,30.26,10.0,Calm,Calm,-,N/A,,Clear,0,2013-01-20 06:15:00
12:35 AM,41.0,39.2,93,30.26,7.0,Calm,Calm,-,N/A,,Clear,0,2013-01-20 06:35:00
12:55 AM,41.0,37.4,87,30.26,0.5,Calm,Calm,-,N/A,Fog,Fog,0,2013-01-20 06:55:00
1:15 AM,42.8,41.0,93,30.27,10.0,Calm,Calm,-,N/A,,Clear,0,2013-01-20 07:15:00
1:35 AM,41.0,39.2,93,30.25,5.0,Calm,Calm,-,N/A,,Clear,0,2013-01-20 07:35:00
1:55 AM,42.8,41.0,93,30.26,7.0,Calm,Calm,-,N/A,,Clear,0,2013-01-20 07:55:00
2:15 AM,41.0,39.2,93,30.26,10.0,Calm,Calm,-,N/A,,Clear,0,2013-01-20 08:15:00
2:35 AM,42.8,39.2,87,30.25,10.0,Calm,Calm,-,N/A,,Clear,0,2013-01-20 08:35:00
2:55 AM,41.0,39.2,93,30.25,3.0,Calm,Calm,-,N/A,,Clear,0,2013-01-20 08:55:00
3:15 AM,41.0,39.2,93,30.25,2.0,Calm,Calm,-,N/A,,Clear,0,2013-01-20 09:15:00
3:35 AM,41.0,39.2,93,30.25,4.0,Calm,Calm,-,N/A,,Clear,0,2013-01-20 09:35:00
3:55 AM,41.0,37.4,87,30.24,1.2,Calm,Calm,-,N/A,,Mist,0,2013-01-20 09:55:00
4:15 AM,41.0,37.4,87,30.24,10.0,Calm,Calm,-,N/A,,Clear,0,2013-01-20 10:15:00
4:35 AM,41.0,37.4,87,30.24,7.0,Calm,Calm,-,N/A,,Clear,0,2013-01-20 10:35:00
4:55 AM,39.2,37.4,93,30.24,10.0,Calm,Calm,-,N/A,,Clear,0,2013-01-20 10:55:00
5:15 AM,39.2,37.4,93,30.25,10.0,Calm,Calm,-,N/A,,Clear,0,2013-01-20 11:15:00
5:35 AM,41.0,37.4,87,30.25,10.0,Calm,Calm,-,N/A,,Clear,0,2013-01-20 11:35:00
5:55 AM,39.2,37.4,93,30.25,5.0,Calm,Calm,-,N/A,,Clear,0,2013-01-20 11:55:00
6:15 AM,39.2,37.4,93,30.25,10.0,Calm,Calm,-,N/A,,Clear,0,2013-01-20 12:15:00
6:35 AM,37.4,35.6,93,30.25,10.0,Calm,Calm,-,N/A,,Clear,0,2013-01-20 12:35:00
7:15 AM,37.4,35.6,93,30.26,10.0,Calm,Calm,-,N/A,,Clear,0,2013-01-20 13:15:00
7:35 AM,41.0,37.4,87,30.26,10.0,Calm,Calm,-,N/A,,Clear,0,2013-01-20 13:35:00
7:55 AM,44.6,42.8,93,30.26,10.0,Calm,Calm,-,N/A,,Clear,0,2013-01-20 13:55:00
8:15 AM,50.0,44.6,82,30.27,10.0,Calm,Calm,-,N/A,,Clear,0,2013-01-20 14:15:00
8:35 AM,51.8,44.6,76,30.28,10.0,Calm,Calm,-,N/A,,Clear,0,2013-01-20 14:35:00
8:55 AM,53.6,44.6,72,30.28,10.0,North,3.5,-,N/A,,Clear,360,2013-01-20 14:55:00
9:15 AM,55.4,44.6,67,30.28,10.0,NNW,4.6,-,N/A,,Clear,340,2013-01-20 15:15:00
9:35 AM,59.0,44.6,59,30.28,10.0,North,3.5,-,N/A,,Clear,350,2013-01-20 15:35:00
9:55 AM,59.0,42.8,55,30.28,10.0,NNW,3.5,-,N/A,,Clear,340,2013-01-20 15:55:00
10:15 AM,60.8,42.8,52,30.28,10.0,North,5.8,-,N/A,,Clear,360,2013-01-20 16:15:00
10:35 AM,60.8,42.8,52,30.26,10.0,North,5.8,-,N/A,,Clear,10,2013-01-20 16:35:00
10:55 AM,62.6,41.0,45,30.25,10.0,North,5.8,-,N/A,,Clear,350,2013-01-20 16:55:00
11:15 AM,62.6,41.0,45,30.25,10.0,North,6.9,-,N/A,,Clear,350,2013-01-20 17:15:00
11:35 AM,62.6,41.0,45,30.23,10.0,North,5.8,-,N/A,,Clear,10,2013-01-20 17:35:00
11:55 AM,62.6,41.0,45,30.22,10.0,North,-9999.0,-,N/A,,Clear,0,2013-01-20 17:55:00
12:15 PM,62.6,41.0,45,30.21,10.0,West,3.5,-,N/A,,Clear,260,2013-01-20 18:15:00
12:35 PM,64.4,39.2,40,30.20,10.0,North,3.5,-,N/A,,Clear,350,2013-01-20 18:35:00
12:55 PM,62.6,37.4,39,30.18,10.0,North,-9999.0,-,N/A,,Clear,0,2013-01-20 18:55:00
1:15 PM,62.6,44.6,52,30.18,10.0,North,-9999.0,-,N/A,,Clear,0,2013-01-20 19:15:00
1:35 PM,62.6,46.4,55,30.16,10.0,SSE,10.4,-,N/A,,Clear,160,2013-01-20 19:35:00
1:55 PM,62.6,42.8,48,30.16,10.0,SSW,5.8,9.2,N/A,,Clear,200,2013-01-20 19:55:00
2:15 PM,62.6,42.8,48,30.15,10.0,WSW,8.1,-,N/A,,Clear,240,2013-01-20 20:15:00
2:55 PM,62.6,41.0,45,30.15,10.0,SW,8.1,-,N/A,,Clear,230,2013-01-20 20:55:00
3:15 PM,62.6,41.0,45,30.15,10.0,WSW,6.9,-,N/A,,Clear,240,2013-01-20 21:15:00
3:35 PM,62.6,41.0,45,30.15,10.0,SW,6.9,-,N/A,,Clear,220,2013-01-20 21:35:00
3:55 PM,60.8,42.8,52,30.15,10.0,SW,5.8,-,N/A,,Clear,220,2013-01-20 21:55:00
4:15 PM,60.8,42.8,52,30.15,10.0,SSW,6.9,-,0.01,,Clear,210,2013-01-20 22:15:00
4:35 PM,60.8,42.8,52,30.15,10.0,SSW,4.6,-,0.01,,Clear,200,2013-01-20 22:35:00
4:55 PM,59.0,42.8,55,30.15,10.0,SSW,3.5,-,0.01,,Clear,200,2013-01-20 22:55:00
5:15 PM,57.2,42.8,59,30.15,10.0,Calm,Calm,-,0.01,,Clear,0,2013-01-20 23:15:00
5:35 PM,55.4,44.6,67,30.15,10.0,Calm,Calm,-,0.01,,Clear,0,2013-01-20 23:35:00
5:55 PM,53.6,44.6,72,30.15,10.0,Calm,Calm,-,0.02,,Clear,0,2013-01-20 23:55:00
6:15 PM,50.0,42.8,76,30.15,10.0,Calm,Calm,-,0.01,,Clear,0,2013-01-21 00:15:00
6:35 PM,48.2,42.8,82,30.16,10.0,Calm,Calm,-,0.01,,Clear,0,2013-01-21 00:35:00
6:55 PM,50.0,44.6,82,30.17,10.0,WNW,3.5,-,0.02,,Clear,290,2013-01-21 00:55:00
7:15 PM,46.4,42.8,87,30.16,10.0,Calm,Calm,-,0.01,,Clear,0,2013-01-21 01:15:00
7:35 PM,46.4,42.8,87,30.16,10.0,Calm,Calm,-,0.01,,Clear,0,2013-01-21 01:35:00
7:55 PM,48.2,44.6,87,30.17,10.0,Calm,Calm,-,0.02,,Clear,0,2013-01-21 01:55:00
8:15 PM,46.4,42.8,87,30.18,7.0,Calm,Calm,-,0.01,,Clear,0,2013-01-21 02:15:00
8:35 PM,46.4,42.8,87,30.18,2.5,Calm,Calm,-,0.01,,Clear,0,2013-01-21 02:35:00
8:55 PM,46.4,42.8,87,30.18,10.0,Calm,Calm,-,0.01,,Clear,0,2013-01-21 02:55:00
9:15 PM,46.4,44.6,93,30.18,10.0,Calm,Calm,-,0.01,,Clear,0,2013-01-21 03:15:00
9:35 PM,44.6,42.8,93,30.18,10.0,Calm,Calm,-,0.01,,Clear,0,2013-01-21 03:35:00
9:55 PM,44.6,42.8,93,30.19,10.0,Calm,Calm,-,0.02,,Clear,0,2013-01-21 03:55:00
10:15 PM,44.6,42.8,93,30.19,10.0,Calm,Calm,-,N/A,,Clear,0,2013-01-21 04:15:00
10:35 PM,44.6,42.8,93,30.19,10.0,Calm,Calm,-,N/A,,Clear,0,2013-01-21 04:35:00
10:55 PM,44.6,42.8,93,30.19,7.0,Calm,Calm,-,0.01,,Clear,0,2013-01-21 04:55:00
11:15 PM,42.8,41.0,93,30.18,0.2,Calm,Calm,-,N/A,Fog,Fog,0,2013-01-21 05:15:00
11:35 PM,42.8,41.0,93,30.17,4.0,Calm,Calm,-,N/A,,Scattered Clouds,0,2013-01-21 05:35:00
11:55 PM,44.6,42.8,93,30.17,0.5,Calm,Calm,-,N/A,Fog,Fog,0,2013-01-21 05:55:00